Flag for U.S.A. Weather past 2 weeks in Baton Rouge, Louisiana, U.S.A.

Now
36 °F

Partly sunny.


Feels Like: 28 °F
Forecast: 27 / 54 °F
Wind: 10 mph from North

Location: Baton Rouge Metropolitan - Ryan Field

Current Time: Mar 5, 2015 at 6:30:38 PM

Latest Report: Mar 5, 2015 at 5:53 PM


Visibility: 10 mi

Pressure: 30.41 "Hg

Humidity: 62%

Dew point: 24 °F

Location of Baton RougeLocation

Historic Weather in Baton Rouge — Graph

°F

Baton Rouge temperature yesterday

Maximum temperature yesterday: 83 °F (at 12:53 PM)
Minimum temperature yesterday: 68 °F (at 3:53 AM)
Average temperature yesterday: 74 °F

Past Weeks' High & Low Weather Summary

 TemperatureHumidityPressure
High83 °F (Mar 4, 12:53 PM)100% (Mar 1, 5:53 AM)30.49 "Hg (Mar 1, 5:53 AM)
Low32 °F (Feb 19, 12:53 AM)25% (Feb 18, 4:53 PM)29.73 "Hg (Feb 25, 3:53 PM)
Average52 °F79%30.16 "Hg
* Reported Feb 18 4:53 PM — Mar 5 4:53 PM, Baton Rouge, Weather by CustomWeather, © 2015

Note: Actual official high and low records may vary slightly from our data, if they occured in-between our weather recording intervals... More about our weather records

Advertising

Baton Rouge weather history for previous 24 hours

 ConditionsComfort  
Time TempWeatherWind HumidityBarometerVisibility
4:53 PM
Thu, Mar 5
36 °FPartly sunny.12 mph67%30.40 "Hg10 mi
3:53 PM35 °FMore clouds than sun.18 mph70%30.37 "Hg10 mi
2:53 PM34 °FOvercast.13 mph82%30.36 "Hg10 mi
1:53 PM33 °FLight rain. Fog.9 mph85%30.34 "Hg4 mi
12:53 PM35 °FLight rain. Overcast.16 mph78%30.35 "Hg10 mi
11:53 AM35 °FOvercast.12 mph82%30.34 "Hg10 mi
10:53 AM36 °FOvercast.8 mph82%30.33 "Hg10 mi
9:53 AM37 °FOvercast.15 mph86%30.32 "Hg10 mi
8:53 AM37 °FMostly cloudy.8 mph89%30.26 "Hg10 mi
7:53 AM36 °FOvercast.8 mph89%30.21 "Hg10 mi
6:53 AM36 °FMore clouds than sun.9 mph89%30.19 "Hg10 mi
5:53 AM37 °FLight rain. Low clouds.16 mph89%30.17 "Hg7 mi
4:53 AM40 °FLow clouds.13 mph89%30.06 "Hg10 mi
3:53 AM42 °FFog.15 mph92%30.02 "Hg6 mi
2:53 AM49 °FLight rain. Low clouds.8 mph93%29.96 "Hg10 mi
2:02 AM57 °FOvercast.14 mph90%29.93 "Hg10 mi
1:53 AM62 °FMostly cloudy.14 mph90%29.91 "Hg10 mi
12:53 AM73 °FMostly cloudy.18 mph84%29.90 "Hg10 mi
11:53 PM
Wed, Mar 4
73 °FMostly cloudy.12 mph88%29.91 "Hg9 mi
10:53 PM73 °FOvercast.14 mph88%29.91 "Hg9 mi
9:53 PM73 °FMostly cloudy.14 mph88%29.91 "Hg10 mi
8:53 PM74 °FMostly cloudy.10 mph82%29.90 "Hg10 mi
7:53 PM75 °FMostly cloudy.10 mph76%29.88 "Hg10 mi
6:53 PM76 °FMostly cloudy.12 mph74%29.86 "Hg10 mi
Weather by CustomWeather, © 2015

See weather overviewHow to use our weather pages